sat.trackr.live / text

‹ back to catalog

STARLINK-11113 [DTC]

NORAD 59947 · 2024-107C

PAYLOAD ACTIVE UNKNOWN

§ Identity

Operator
Country
US
Launch date
2024-06-05
Launch site
AFETR
Launch vehicle
Mass (kg)
RCS (m²)

Purposes: comms

External: N2YO · Heavens-Above · Gunter

§ Orbital elements

Epoch: 2026-09-21T17:52:13.875456Z

Period
91.74 min
Inclination
53.1597°
Eccentricity
0.0001371
Mean motion
15.69699381 rev/d
Perigee alt
358.8 km
Apogee alt
360.7 km
Semi-major
6,737.9 km
B*
2.2726e-6
RAAN
4.4034°
Arg perigee
79.3100°
Mean anomaly
280.8072°
Rev number
13,294

§ Raw data

STARLINK-11113 [DTC]1 59947U 24107C   26264.74460504 -.00000314  00000+0  22726-5 0  99902 59947  53.1597   4.4034 0001371  79.3100 280.8072 15.69699381132946

JSON: /api/v1/satellites/59947 · /tle

For live sub-satellite position, see the globe view (requires WebGL).

§ Visibility from observer

Set your observer location to see the next 7 days of passes ≥ 10°. The values pass through the URL so the page stays shareable.

No JS? Fill the form by hand. The geolocation button needs JavaScript.